This demonstration page uses our WeatherBlox Daily Observations layout. Learn more.

41.55636, -103.73856

Hourly Observations for April 3, 2019

Temp ( °F °C ) Dew Point ( °F °C ) Humidity (%) Winds ( mph kmh ) Pressure ( in mb ) Visibility ( mi km ) Precip ( " mm )
12:00 am 00:00 Cloudy 43 6 39 4 87 87 ESE 9 15 29.97 1015 10 16.09344 0 0
12:53 am 00:53 Cloudy 41 5 40 4.4 96 96 E 8 13 29.94 1014 10 16.09344 0 0
1:53 am 01:53 Cloudy 41 5 39 3.9 93 93 ESE 7 11 29.91 1013 10 16.09344 0 0
2:53 am 02:53 Cloudy with Light Rain 41 5 39 3.9 93 93 ESE 15 24 29.88 1012 10 16.09344 0.001 0.001
3:53 am 03:53 Cloudy 41 5 38 3.3 89 89 E 14 22 29.88 1012 10 16.09344 0.01 0.254
4:53 am 04:53 Cloudy 40 4.4 38 3.3 93 93 ESE 15 24 29.88 1012 10 16.09344 0.001 0.001
5:53 am 05:53 Cloudy 40 4.4 38 3.3 93 93 E 13 20 29.88 1012 10 16.09344 0 0
6:53 am 06:53 Cloudy 40 4.4 37 2.8 89 89 ESE 15 24 29.88 1012 10 16.09344 0 0
7:53 am 07:53 Cloudy 41 5 38 3.3 89 89 ESE 15 24 29.88 1012 10 16.09344 0 0
8:39 am 08:39 Cloudy 42 5.6 39 3.9 89 89 ESE 16 26 29.94 1014 10 16.09344 0 0
8:53 am 08:53 Cloudy 42 5.6 39 3.9 89 89 ESE 16 26 29.88 1012 10 16.09344 0 0
9:25 am 09:25 Cloudy 43 6.1 40 4.4 89 89 SE 15 24 29.94 1014 9 14.484096 0.001 0.001
9:34 am 09:34 Cloudy 43 6 39 4 87 87 ESE 15 24 29.94 1014 10 16.09344 0 0
9:53 am 09:53 Cloudy 44 6.7 40 4.4 85 85 ESE 16 26 29.88 1012 10 16.09344 0.001 0.001
10:20 am 10:20 Cloudy 45 7 39 4 81 81 ESE 17 28 29.94 1014 10 16.09344 0 0
10:53 am 10:53 Cloudy 46 7.8 40 4.4 79 79 ESE 17 28 29.88 1012 10 16.09344 0 0
11:53 am 11:53 Cloudy 48 8.9 39 3.9 71 71 ESE 12 19 29.88 1012 10 16.09344 0 0
12:16 pm 12:16 Cloudy 50 10 40 4.4 68 68 ESE 13 20 29.88 1012 9 14.484096 0 0
12:53 pm 12:53 Cloudy 51 10.6 40 4.4 66 66 E 14 22 29.88 1012 8 12.874752 0 0
1:53 pm 13:53 Cloudy 53 11.7 40 4.4 61 61 E 12 19 29.85 1011 7 11.265408 0 0
2:53 pm 14:53 Hazy 55 12.8 39 3.9 55 55 ESE 12 19 29.83 1010 6 9.656064 0 0
3:53 pm 15:53 Cloudy with Haze 56 13.3 40 4.4 55 55 E 10 17 29.83 1010 4 6.437376 0 0
4:53 pm 16:53 Cloudy with Haze 54 12.2 39 3.9 57 57 ESE 13 20 29.85 1011 4 6.437376 0 0
5:53 pm 17:53 Cloudy with Haze 53 11.7 39 3.9 59 59 ESE 13 20 29.85 1011 4 6.437376 0 0
6:53 pm 18:53 Cloudy with Light Rain 49 9.4 40 4.4 71 71 E 15 24 29.91 1013 4 6.437376 0.001 0.001
7:53 pm 19:53 Cloudy with Light Rain 45 7.2 41 5 86 86 E 13 20 29.91 1013 5 8.04672 0.03 0.762
8:53 pm 20:53 Cloudy with Light Rain 44 6.7 41 5 89 89 E 12 19 29.97 1015 6 9.656064 0.001 0.001
9:53 pm 21:53 Cloudy with Mist and Fog 43 6.1 40 4.4 89 89 ESE 9 15 30 1016 5 8.04672 0.001 0.001
10:33 pm 22:33 Cloudy with Mist and Fog 42 5.6 40 4.4 92 92 E 8 13 30.06 1018 5 8.04672 0 0
10:53 pm 22:53 Mostly Cloudy with Mist and Fog 41 5 40 4.4 96 96 E 8 13 30 1016 4 6.437376 0 0
11:13 pm 23:13 Mostly Cloudy with Mist and Fog 41 5 40 4.4 96 96 E 9 15 30.06 1018 4 6.437376 0 0
11:35 pm 23:35 Cloudy with Mist and Fog 42 5.6 40 4.4 92 92 ESE 12 19 30.03 1017 4 6.437376 0 0
11:53 pm 23:53 Cloudy with Mist and Fog 42 5.6 40 4.4 92 92 ESE 14 22 30 1016 5 8.04672 0 0

Powered by AerisWeather